GW5937 Weather Reports


time (UTC)temp
C
wind
direction
speed
KPH
gust
KPH
rain 1hr
cm
rain 24hr
cm
rain mn
cm
humidity
%
barometer
mb
20260510094834 19 227 0.0 3.2 0.03 0.23 0.13 95 1012.4
20260510094712 19 227 0.0 3.2 0.03 0.23 0.13 95 1012.4
20260510093829 19 227 0.0 3.2 0.03 0.23 0.13 95 1012.3
20260510093330 19 227 0.0 1.6 0.03 0.23 0.13 95 1012.2
20260510092830 19 227 0.0 3.2 0.03 0.23 0.13 95 1012.3
20260510092329 19 227 0.0 3.2 0.03 0.23 0.13 96 1012.2
20260510091829 19 227 0.0 3.2 0.03 0.23 0.13 96 1012.2
20260510091329 19 227 0.0 3.2 0.03 0.23 0.13 95 1012.3
20260510090829 19 227 0.0 3.2 0.03 0.23 0.13 95 1012.2
20260510090329 19 227 0.0 3.2 0.03 0.23 0.10 95 1012.2
20260510090154 19 227 0.0 3.2 0.00 0.20 0.10 95 1012.1
20260510085329 19 227 0.0 3.2 0.00 0.20 0.10 95 1012.2
20260510084832 19 227 0.0 3.2 0.00 0.20 0.10 95 1012.1
20260510084329 19 227 1.6 3.2 0.00 0.20 0.10 95 1012.1
20260510083835 19 146 1.6 4.8 0.00 0.20 0.10 95 1012.1
20260510083400 19 138 1.6 4.8 0.03 0.20 0.10 95 1012.0
20260510083346 19 138 1.6 4.8 0.03 0.20 0.10 95 1012.1
20260510081829 19 259 0.0 4.8 0.03 0.20 0.10 95 1011.5
20260510081330 19 259 1.6 4.8 0.03 0.20 0.10 95 1011.5
20260510080830 19 259 1.6 4.8 0.03 0.20 0.10 95 1011.4
20260510080330 19 208 0.0 3.2 0.03 0.20 0.10 95 1011.5
20260510075828 19 173 0.0 3.2 0.03 0.20 0.10 95 1011.6
20260510075330 19 173 0.0 4.8 0.03 0.20 0.10 95 1011.7
20260510075212 19 128 0.0 4.8 0.03 0.20 0.10 95 1011.7
20260510074329 19 125 0.0 4.8 0.03 0.20 0.10 95 1011.7
20260510074155 19 214 0.0 4.8 0.03 0.20 0.10 95 1011.6
20260510073329 19 223 0.0 3.2 0.00 0.18 0.08 95 1011.5
20260510072832 19 150 0.0 1.6 0.00 0.18 0.08 95 1011.7
20260510072331 19 150 0.0 1.6 0.00 0.18 0.08 95 1011.6
20260510071830 19 172 0.0 1.6 0.00 0.18 0.08 94 1011.6
20260510071329 19 172 0.0 6.4 0.00 0.18 0.08 94 1011.6
20260510070833 19 178 0.0 6.4 0.00 0.18 0.08 94 1011.7
20260510070329 19 173 0.0 4.8 0.00 0.18 0.08 94 1011.6
20260510065830 19 171 1.6 4.8 0.00 0.18 0.08 95 1011.6
20260510065331 19 173 1.6 4.8 0.03 0.18 0.08 95 1011.6
20260510064836 19 148 1.6 4.8 0.03 0.18 0.08 95 1011.5
20260510064332 19 104 1.6 3.2 0.03 0.18 0.08 95 1011.4
20260510064203 19 144 1.6 3.2 0.03 0.18 0.08 95 1011.7
20260510063329 19 211 0.0 3.2 0.05 0.18 0.08 94 1011.6
20260510063204 19 226 0.0 3.2 0.05 0.18 0.08 94 1011.8
20260510062330 20 217 0.0 3.2 0.05 0.18 0.08 94 1011.7
20260510061829 20 217 1.6 3.2 0.05 0.18 0.08 94 1011.9
20260510061329 20 223 1.6 4.8 0.08 0.18 0.08 94 1011.9
20260510061151 20 247 1.6 6.4 0.08 0.18 0.08 94 1011.9
20260510060329 20 193 1.6 6.4 0.08 0.18 0.08 94 1012.0
20260510055830 20 175 1.6 3.2 0.08 0.18 0.08 94 1011.9
20260510055329 20 203 1.6 4.8 0.05 0.15 0.05 94 1011.8
20260510054829 20 166 1.6 8.0 0.05 0.15 0.05 93 1011.7
20260510054330 20 161 1.6 8.0 0.05 0.15 0.05 94 1011.9
20260510053829 20 142 1.6 4.8 0.05 0.15 0.05 94 1011.9
20260510053331 20 135 1.6 4.8 0.03 0.13 0.03 94 1012.1
20260510052830 20 187 1.6 6.4 0.03 0.13 0.03 94 1012.1
20260510052337 20 193 3.2 6.4 0.03 0.13 0.03 94 1012.2
20260510051836 20 182 3.2 8.0 0.03 0.13 0.03 94 1012.2
20260510051331 20 161 3.2 8.0 0.00 0.10 0.00 94 1012.4
20260510050816 20 169 3.2 8.0 0.00 0.10 0.00 94 1012.4
20260510050313 20 167 1.6 8.0 0.00 0.10 0.00 94 1012.4
20260510045819 20 155 1.6 4.8 0.00 0.10 0.00 94 1012.3
20260510045317 20 189 1.6 4.8 0.00 0.10 0.00 94 1012.2
20260510044815 20 177 1.6 6.4 0.00 0.10 0.00 94 1012.1
20260510044316 20 177 1.6 8.0 0.00 0.10 0.00 94 1012.1
20260510043813 20 173 1.6 8.0 0.00 0.10 0.00 94 1012.1
20260510043314 20 180 3.2 8.0 0.00 0.10 0.00 94 1012.2
20260510042812 20 180 3.2 8.0 0.00 0.10 0.00 94 1012.3
20260510042651 20 178 3.2 8.0 0.00 0.10 0.00 94 1012.2
20260510041809 20 197 3.2 8.0 0.00 0.10 0.00 94 1012.2
20260510041304 20 163 3.2 8.0 0.00 0.10 0.00 94 1012.2
20260510040804 20 180 1.6 6.4 0.00 0.10 0.00 94 1012.1
20260510040621 20 175 1.6 6.4 0.00 0.10 0.00 94 1012.0
20260510035801 20 156 1.6 6.4 0.00 0.10 0.10 94 1012.0
20260510035301 20 179 0.0 6.4 0.00 0.10 0.10 94 1012.0
20260510034800 20 180 0.0 3.2 0.00 0.10 0.10 94 1012.0
20260510034627 20 180 0.0 3.2 0.00 0.10 0.10 94 1012.0
20260510034116 20 180 0.0 1.6 0.00 0.10 0.10 94 1011.7
20260510033301 20 180 0.0 3.2 0.00 0.10 0.10 94 1011.5
20260510032803 20 182 1.6 3.2 0.00 0.10 0.10 94 1011.7
20260510032305 20 185 1.6 3.2 0.00 0.10 0.10 93 1011.8
20260510032123 20 182 0.0 3.2 0.00 0.13 0.10 94 1011.7
20260510031416 20 165 1.6 4.8 0.00 0.13 0.10 93 1011.6
20260510030302 20 167 1.6 4.8 0.00 0.13 0.10 94 1011.4
20260510030128 20 168 0.0 3.2 0.00 0.13 0.10 93 1011.3
20260510025306 20 168 0.0 3.2 0.00 0.13 0.10 94 1011.3
20260510024808 20 168 1.6 3.2 0.00 0.13 0.10 93 1011.4
20260510024300 20 168 1.6 3.2 0.00 0.15 0.10 93 1011.4
20260510024127 20 183 0.0 8.0 0.00 0.15 0.10 93 1011.5
20260510023303 20 178 1.6 8.0 0.00 0.18 0.10 93 1011.4
20260510022802 20 178 3.2 8.0 0.00 0.20 0.10 93 1011.3
20260510022622 20 215 3.2 8.0 0.00 0.20 0.10 93 1011.3
20260510021801 20 213 3.2 6.4 0.00 0.23 0.10 93 1011.3
20260510021303 20 227 1.6 4.8 0.00 0.23 0.10 93 1011.3
20260510020801 20 159 1.6 4.8 0.00 0.25 0.10 93 1011.2
20260510020301 20 170 1.6 4.8 0.00 0.25 0.10 93 1011.2
20260510015804 20 195 0.0 4.8 0.00 0.25 0.10 93 1011.1
20260510015306 20 195 1.6 4.8 0.00 0.25 0.10 93 1011.3
20260510014759 20 233 1.6 4.8 0.00 0.25 0.10 93 1011.2
20260510014647 20 233 1.6 4.8 0.00 0.25 0.10 93 1011.2
20260510013759 20 202 1.6 4.8 0.00 0.25 0.10 93 1011.1
20260510013258 20 175 1.6 4.8 0.00 0.28 0.10 93 1011.2
20260510012758 20 205 1.6 8.0 0.00 0.28 0.10 93 1011.2
20260510012256 20 205 1.6 11.3 0.00 0.28 0.10 93 1011.3
20260510012124 20 178 1.6 11.3 0.00 0.28 0.10 93 1011.1
20260510011254 20 182 3.2 11.3 0.00 0.28 0.10 93 1011.0
20260510010753 20 149 1.6 11.3 0.00 0.28 0.10 93 1011.0
20260510010254 20 153 1.6 8.0 0.00 0.28 0.10 93 1011.0
20260510005756 20 165 1.6 8.0 0.00 0.28 0.10 93 1011.0
20260510005253 21 152 1.6 8.0 0.00 0.28 0.10 93 1011.1
20260510004752 20 160 1.6 6.4 0.00 0.28 0.10 93 1011.0
20260510004626 21 198 1.6 8.0 0.00 0.28 0.10 93 1011.0
20260510003747 21 200 3.2 8.0 0.00 0.28 0.10 93 1010.8
20260510003247 21 198 1.6 6.4 0.00 0.28 0.10 93 1010.7
20260510002747 21 176 0.0 4.8 0.00 0.28 0.10 92 1010.6
20260510002616 21 225 1.6 4.8 0.00 0.28 0.10 92 1010.6
20260510001747 21 225 1.6 4.8 0.00 0.28 0.10 92 1010.5
20260510001247 21 225 1.6 4.8 0.00 0.28 0.10 92 1010.5
20260510001131 21 164 1.6 4.8 0.03 0.28 0.10 92 1010.3
20260510000244 21 133 1.6 4.8 0.03 0.28 0.10 92 1010.3
20260509235741 21 217 1.6 8.0 0.03 0.28 0.10 92 1010.3
20260509235241 21 206 3.2 8.0 0.03 0.28 0.10 91 1010.1
20260509234741 21 115 4.8 8.0 0.03 0.28 0.10 92 1009.8
20260509234240 21 169 3.2 8.0 0.03 0.28 0.10 91 1010.1
20260509233740 21 222 1.6 6.4 0.03 0.28 0.10 91 1010.1
20260509233241 21 127 3.2 6.4 0.03 0.28 0.10 91 1009.9
20260509232740 21 229 3.2 6.4 0.03 0.28 0.10 91 1010.0
20260509232241 21 215 1.6 6.4 0.03 0.28 0.10 91 1010.0
20260509231741 21 115 1.6 6.4 0.03 0.28 0.10 90 1010.0
20260509231236 21 24 0.0 3.2 0.03 0.28 0.10 90 1010.3
20260509230737 21 24 0.0 3.2 0.00 0.25 0.08 89 1010.2
20260509230236 21 24 1.6 6.4 0.00 0.25 0.08 89 1010.1
20260509225737 21 154 1.6 11.3 0.00 0.25 0.08 89 1010.1
20260509225236 21 138 1.6 11.3 0.00 0.25 0.08 89 1010.3
20260509224736 21 213 3.2 11.3 0.00 0.25 0.08 89 1010.3
20260509224236 21 158 3.2 11.3 0.00 0.25 0.08 89 1010.2
20260509223738 21 221 3.2 9.7 0.00 0.25 0.08 88 1010.2
20260509223238 21 164 1.6 8.0 0.00 0.25 0.08 89 1010.1
20260509223231 21 217 1.6 6.4 0.00 0.25 0.08 89 1009.9
20260509221733 21 210 3.2 8.0 0.00 0.25 0.08 88 1010.0
20260509221231 22 227 3.2 8.0 0.00 0.25 0.08 89 1009.9
20260509220730 21 224 4.8 8.0 0.00 0.25 0.08 88 1009.8
20260509220231 22 217 4.8 11.3 0.00 0.25 0.08 87 1009.9
20260509215734 22 227 4.8 11.3 0.00 0.25 0.08 88 1009.9
20260509215233 22 239 6.4 12.9 0.00 0.25 0.08 88 1010.0
20260509215102 22 214 8.0 12.9 0.00 0.25 0.08 88 1010.3
20260509214232 22 232 6.4 11.3 0.00 0.25 0.08 88 1010.3
20260509213731 22 224 6.4 11.3 0.00 0.25 0.08 87 1010.2
20260509213346 22 225 6.4 12.9 0.00 0.25 0.08 86 1010.3
20260509212229 22 230 8.0 12.9 0.00 0.25 0.08 86 1010.2
20260509211729 22 213 9.7 14.5 0.00 0.25 0.08 86 1010.4
20260509211228 22 216 9.7 14.5 0.00 0.25 0.08 85 1010.4
20260509210725 22 219 9.7 14.5 0.00 0.25 0.08 85 1010.3
20260509210225 22 219 11.3 14.5 0.03 0.25 0.08 85 1010.4
20260509205725 22 225 11.3 17.7 0.03 0.25 0.08 85 1010.3
20260509205226 22 223 11.3 17.7 0.03 0.25 0.08 85 1010.4
20260509204724 22 221 11.3 16.1 0.03 0.25 0.08 85 1010.4
20260509204225 22 223 9.7 14.5 0.03 0.25 0.08 85 1010.2
20260509203723 22 225 11.3 14.5 0.03 0.25 0.08 85 1010.1
20260509203547 22 213 8.0 14.5 0.03 0.25 0.08 86 1010.4
20260509202723 22 218 8.0 19.3 0.03 0.25 0.08 86 1010.3
20260509202547 22 223 8.0 19.3 0.03 0.25 0.08 87 1010.3
20260509201832 22 219 9.7 19.3 0.03 0.25 0.08 87 1010.2
20260509200724 22 217 11.3 19.3 0.03 0.25 0.08 87 1010.2
20260509200223 22 219 9.7 19.3 0.03 0.23 0.05 88 1010.1
20260509195722 22 222 4.8 14.5 0.03 0.23 0.05 88 1010.0
20260509195553 21 158 4.8 16.1 0.03 0.23 0.05 88 1009.6
20260509194716 21 144 6.4 16.1 0.03 0.23 0.05 88 1009.4
20260509194212 21 127 8.0 17.7 0.03 0.23 0.05 87 1009.4
20260509194045 22 142 6.4 17.7 0.03 0.23 0.05 87 1009.8
20260509193210 22 173 6.4 12.9 0.03 0.23 0.05 86 1009.8
20260509192710 22 126 6.4 16.1 0.03 0.23 0.05 86 1009.7
20260509192211 22 133 6.4 16.1 0.03 0.23 0.05 85 1009.7
20260509191704 22 98 6.4 14.5 0.03 0.23 0.05 84 1009.9
20260509191203 22 149 4.8 14.5 0.03 0.23 0.05 83 1010.0
20260509190702 22 153 4.8 14.5 0.05 0.23 0.05 82 1010.2
20260509190204 23 159 4.8 11.3 0.03 0.20 0.03 81 1010.3
20260509190022 23 192 4.8 11.3 0.03 0.20 0.03 79 1010.3
20260509185205 23 158 3.2 8.0 0.03 0.20 0.03 80 1010.4
20260509184705 23 179 4.8 9.7 0.03 0.20 0.03 81 1010.4
20260509184529 23 219 3.2 12.9 0.03 0.20 0.03 81 1010.6
20260509184024 23 240 3.2 12.9 0.03 0.20 0.03 81 1010.7
20260509183526 23 194 3.2 14.5 0.03 0.20 0.03 80 1010.6
20260509182702 23 185 3.2 14.5 0.03 0.20 0.03 80 1010.8
20260509182201 23 207 3.2 16.1 0.03 0.20 0.03 79 1010.9
20260509181702 24 180 4.8 16.1 0.03 0.20 0.03 80 1011.0
20260509181201 24 170 6.4 17.7 0.03 0.20 0.03 76 1011.0
20260509181017 25 184 6.4 17.7 0.00 0.18 0.00 75 1011.0
20260509180203 25 157 6.4 12.9 0.00 0.18 0.00 74 1011.1
20260509175701 25 217 6.4 12.9 0.00 0.18 0.00 74 1010.9
20260509175202 25 180 4.8 14.5 0.00 0.18 0.00 74 1011.0
20260509174701 25 178 4.8 14.5 0.00 0.18 0.00 72 1010.9
20260509174205 26 204 4.8 12.9 0.00 0.18 0.00 73 1010.8
20260509173703 26 211 6.4 16.1 0.00 0.18 0.00 73 1010.8
20260509173202 26 221 6.4 16.1 0.00 0.18 0.00 72 1010.7
20260509173025 26 219 4.8 14.5 0.00 0.18 0.00 73 1010.7
20260509172201 26 256 4.8 14.5 0.00 0.18 0.00 73 1010.7
20260509172028 26 198 4.8 11.3 0.00 0.18 0.00 74 1010.7
20260509171524 25 218 4.8 14.5 0.00 0.18 0.00 73 1010.7
20260509170701 26 189 4.8 14.5 0.00 0.18 0.00 72 1010.7
20260509170202 26 154 4.8 14.5 0.00 0.18 0.00 75 1010.7
20260509165702 26 202 6.4 14.5 0.00 0.18 0.00 73 1010.8
20260509165201 26 180 4.8 14.5 0.00 0.18 0.00 74 1010.8
20260509164703 26 166 3.2 14.5 0.00 0.18 0.00 75 1010.9
20260509164201 26 190 3.2 11.3 0.00 0.18 0.00 75 1011.0
20260509163701 26 225 3.2 8.0 0.00 0.18 0.00 76 1011.1
20260509163527 26 169 4.8 9.7 0.00 0.18 0.00 75 1011.1
20260509162709 26 210 4.8 14.5 0.00 0.18 0.00 75 1011.0
20260509162211 26 175 4.8 14.5 0.00 0.18 0.00 74 1011.0
20260509161707 26 209 4.8 14.5 0.00 0.18 0.00 74 1011.0
20260509161208 26 164 4.8 14.5 0.00 0.18 0.00 74 1011.0
20260509160704 26 155 4.8 14.5 0.00 0.18 0.00 74 1011.0
20260509160202 26 226 3.2 14.5 0.00 0.18 0.00 75 1011.1
20260509155701 26 221 4.8 14.5 0.00 0.18 0.00 76 1011.0
20260509155205 26 140 4.8 14.5 0.00 0.18 0.00 75 1011.0
20260509154701 26 134 4.8 11.3 0.00 0.18 0.00 76 1011.2
20260509154203 25 169 6.4 14.5 0.00 0.18 0.00 78 1011.2
20260509153701 25 175 4.8 14.5 0.00 0.18 0.00 77 1011.2
20260509153205 25 102 3.2 9.7 0.00 0.18 0.00 79 1011.3
20260509153025 25 149 3.2 14.5 0.00 0.18 0.00 79 1011.3
20260509152157 25 169 3.2 14.5 0.00 0.18 0.00 80 1011.3
20260509151655 25 167 4.8 16.1 0.00 0.18 0.00 80 1011.3
20260509151154 25 200 6.4 16.1 0.00 0.18 0.00 78 1011.4
20260509150653 25 158 4.8 12.9 0.00 0.18 0.00 80 1011.3
20260509150154 24 167 3.2 11.3 0.00 0.18 0.00 80 1011.5
20260509145653 24 139 4.8 11.3 0.00 0.18 0.00 79 1011.6
20260509145154 24 175 3.2 11.3 0.00 0.18 0.00 80 1011.6
20260509144656 24 191 3.2 9.7 0.00 0.18 0.00 80 1011.5
20260509144515 23 134 3.2 9.7 0.00 0.18 0.00 81 1011.6
20260509144017 23 150 3.2 11.3 0.00 0.18 0.00 81 1011.6
20260509143156 23 179 3.2 11.3 0.00 0.18 0.00 81 1011.6
20260509142653 23 152 4.8 11.3 0.00 0.18 0.00 79 1011.5
20260509142154 23 142 4.8 11.3 0.00 0.18 0.00 79 1011.6
20260509141654 23 127 4.8 11.3 0.00 0.18 0.00 79 1011.6
20260509141154 23 171 4.8 12.9 0.00 0.18 0.00 80 1011.6
20260509140650 23 140 4.8 12.9 0.00 0.18 0.00 80 1011.5
20260509140151 23 138 4.8 11.3 0.00 0.18 0.00 82 1011.5
20260509135650 23 130 4.8 11.3 0.00 0.18 0.00 84 1011.4
20260509135152 23 146 3.2 11.3 0.00 0.18 0.00 84 1011.4
20260509134650 22 182 1.6 9.7 0.00 0.18 0.00 85 1011.4
20260509134152 22 113 3.2 9.7 0.00 0.18 0.00 84 1011.4
20260509133651 22 153 3.2 9.7 0.00 0.18 0.00 84 1011.5
20260509133153 22 225 3.2 11.3 0.00 0.18 0.00 85 1011.5
20260509132653 22 159 4.8 11.3 0.00 0.18 0.00 85 1011.4
20260509132152 22 138 4.8 11.3 0.00 0.18 0.00 85 1011.3
20260509131647 22 167 3.2 8.0 0.00 0.18 0.00 84 1011.4
20260509131509 22 206 3.2 9.7 0.00 0.18 0.00 85 1011.4
20260509130647 22 184 3.2 9.7 0.00 0.18 0.00 87 1011.3
20260509130147 22 167 1.6 8.0 0.00 0.18 0.00 88 1011.3
20260509125646 22 169 1.6 6.4 0.00 0.18 0.00 89 1011.2
20260509125145 22 207 1.6 4.8 0.00 0.18 0.00 89 1011.2
20260509124645 21 135 1.6 4.8 0.00 0.18 0.00 90 1011.1
20260509124148 21 135 3.2 11.3 0.00 0.18 0.00 90 1011.1
20260509123719 21 152 3.2 8.0 0.00 0.18 0.00 93 1011.1
20260509123702 21 154 3.2 11.3 0.00 0.18 0.00 90 1011.2
20260509122142 21 128 3.2 8.0 0.00 0.18 0.00 93 1010.8
20260509121641 21 140 1.6 8.0 0.00 0.18 0.00 94 1011.0
20260509121143 21 119 0.0 6.4 0.00 0.18 0.00 95 1010.9
20260509120959 21 93 1.6 6.4 0.00 0.18 0.00 96 1010.9
20260509120503 20 121 1.6 6.4 0.00 0.18 0.00 96 1010.8
20260509115644 20 78 1.6 6.4 0.00 0.18 0.00 96 1010.7
20260509115143 20 92 1.6 4.8 0.00 0.18 0.00 96 1010.8
20260509114643 20 101 1.6 4.8 0.00 0.18 0.00 96 1010.9
20260509114142 20 128 1.6 3.2 0.00 0.18 0.00 96 1011.0
20260509113642 20 111 1.6 3.2 0.00 0.18 0.00 96 1011.1
20260509113142 20 111 0.0 3.2 0.00 0.18 0.00 96 1011.0
20260509112643 20 111 0.0 3.2 0.00 0.18 0.00 96 1010.9
20260509112142 20 111 0.0 3.2 0.00 0.18 0.00 96 1010.8
20260509111638 19 111 0.0 3.2 0.00 0.18 0.00 96 1010.7
20260509111136 19 111 0.0 3.2 0.00 0.18 0.00 96 1010.6
20260509110947 19 111 0.0 3.2 0.00 0.18 0.00 96 1010.5
20260509110132 19 111 1.6 3.2 0.00 0.18 0.00 96 1010.4
20260509105632 19 108 1.6 3.2 0.00 0.18 0.00 96 1010.3
20260509105131 19 109 0.0 3.2 0.00 0.18 0.00 96 1010.3
20260509104630 19 109 0.0 1.6 0.00 0.18 0.00 95 1010.3
20260509104131 19 109 1.6 3.2 0.00 0.18 0.00 95 1010.2
20260509103624 19 101 1.6 3.2 0.00 0.18 0.00 95 1010.0
20260509103119 19 53 1.6 3.2 0.00 0.18 0.00 95 1010.0
20260509102625 19 53 1.6 3.2 0.00 0.18 0.00 95 1009.9
20260509102118 19 53 1.6 3.2 0.00 0.18 0.00 95 1010.0
20260509101617 19 53 1.6 3.2 0.00 0.18 0.00 95 1010.0
20260509101118 19 53 1.6 3.2 0.00 0.18 0.00 95 1010.0
20260509100617 19 53 1.6 3.2 0.00 0.18 0.00 95 1009.9
20260509100116 19 9 1.6 3.2 0.00 0.18 0.00 95 1009.8
20260509095616 20 9 1.6 6.4 0.00 0.18 0.00 95 1009.9